Hourly Data Report for May 07, 2012

All times are specified in Local Standard Time (LST). Add 1 hour to adjust for Daylight Saving Time where and when it is observed.

HAMILTON A
ONTARIO

43°10'25.000" N
79°56'06.000" W
237.70 m
6153193
71263
YHM

Download Data

Hourly Data (May 2012)
Hourly Data Report for May 7, 2012
Temp Definition
°C
Dew Point Temp Definition
°C
Rel Hum Definition
%
Wind Dir Definition
10's deg

Wind Spd Definition
km/h
Visibility Definition
km
Stn Press Definition
kPa
Hmdx Definition


Wind Chill Definition


Weather Definition


TIME
00:00 Legend Double Dagger 11.0 0.7 49 4 18 10.0 99.00     Rain Showers
01:00 Legend Double Dagger 10.0 3.5 64 6 16 10.0 98.94     Rain Showers
02:00 Legend Double Dagger 9.9 3.7 65 4 16 10.0 98.89     Rain Showers
03:00 Legend Double Dagger 10.1 4.3 67 5 14 10.0 98.81     Rain Showers
04:00 Legend Double Dagger 9.8 4.4 69 5 17 10.0 98.78     Rain Showers
05:00 Legend Double Dagger 9.5 3.7 67 5 23 10.0 98.75     LegendNANA
06:00 Legend Double Dagger 9.8 4.0 67 4 23 10.0 98.75     LegendNANA
07:00 Legend Double Dagger 10.7 3.5 61 5 23 10.0 98.75     Cloudy
08:00 Legend Double Dagger 11.4 3.7 59 5 18 10.0 98.75     LegendNANA
09:00 Legend Double Dagger 11.1 4.1 62 4 30 10.0 98.67     LegendNANA
10:00 Legend Double Dagger 10.8 5.0 67 4 21 10.0 98.67     Cloudy
11:00 Legend Double Dagger 10.9 5.1 67 5 21 10.0 98.65     LegendNANA
12:00 Legend Double Dagger 11.2 5.6 68 5 15 10.0 98.66     LegendNANA
13:00 Legend Double Dagger 10.9 6.1 72 4 14 10.0 98.60     Cloudy
14:00 Legend Double Dagger 10.6 7.1 79 5 14 10.0 98.50     LegendNANA
15:00 Legend Double Dagger 9.4 8.0 91 4 14 3.6 98.46     Rain Showers,Fog
16:00 Legend Double Dagger 9.9 8.8 93 4 13 4.0 98.35     Rain Showers,Fog
17:00 Legend Double Dagger 10.1 9.0 93 1 17 4.0 98.33     Rain Showers,Fog
18:00 Legend Double Dagger 10.9 10.0 94 3 10 10.0 98.22     Rain Showers
19:00 Legend Double Dagger 10.7 9.6 93 3 10 10.0 98.20     Rain Showers
20:00 Legend Double Dagger 10.4 9.3 93 6 13 10.0 98.16     LegendNANA
21:00 Legend Double Dagger 10.1 9.0 93 4 8 10.0 98.13     Rain Showers
22:00 Legend Double Dagger 10.5 9.1 91 4 9 10.0 98.10     Rain Showers
23:00 Legend Double Dagger 10.5 9.1 91 4 9 10.0 98.02     Rain Showers

Notes on Data Quality.

Legend

  • E = Estimated
  • M = Missing
  • NA = Not Available
  • ‡ = Partner data that is not subject to review by the National Climate Archives
Date modified: